RH
12 17 13 10 9 12 13 9 10 13 13 26 41 38 57 57 89 100 87 45 18 15 13 13 13 12 10 10 11 12 11 11 10 10 11 12 11 12 12 11 11 14 11
12 13 26 28 9 9 14 16 10 18 27 37 42 38 36 63 92 97 100 71 27 16 15 14 14 14 13 10 10 10 11 11 11 11 11 11 12 10 11 12 10 11 11
20 26 33 38 25 10 11 15 15 15 47 55 57 56 48 51 55 88 80 97 52 20 16 15 14 16 16 13 11 10 11 12 12 11 11 10 11 12 11 12 12 10 10
22 10 12 14 20 13 11 14 18 15 41 57 71 78 88 82 50 41 69 88 75 39 18 15 15 16 17 16 15 12 12 13 12 13 12 12 13 14 13 12 11 12 11
17 16 15 16 15 16 14 15 21 21 34 42 51 79 90 95 96 79 80 49 73 80 22 16 16 17 18 18 17 16 14 13 13 13 13 12 12 13 13 14 14 14 14
30 19 19 16 17 22 21 15 23 22 28 34 37 61 81 84 97 94 69 73 70 74 27 18 17 17 18 18 18 18 17 16 16 15 14 14 14 15 15 16 16 16 16
30 24 20 20 20 20 23 18 25 28 32 61 83 87 84 98 92 99 82 97 100 98 28 20 18 18 18 19 19 19 19 19 18 18 18 18 18 18 18 18 18 18 19
34 34 33 28 27 27 24 26 30 33 61 95 98 100 100 99 98 100 95 98 100 78 39 29 23 19 20 20 21 21 22 21 21 21 21 21 21 21 21 21 22 22 22
44 40 36 35 33 34 54 37 33 53 81 97 96 100 99 100 98 100 100 92 100 99 77 52 30 24 21 22 22 23 23 23 23 24 24 24 24 24 24 24 24 24 24
49 44 39 37 40 44 47 50 94 93 89 95 95 98 100 100 100 100 99 99 100 96 100 72 40 31 25 23 22 22 23 24 25 25 26 26 26 26 25 25 26 26 26
54 49 50 52 56 55 48 52 98 99 98 86 77 66 100 99 100 100 100 100 100 100 100 77 48 38 34 30 27 25 23 23 24 24 24 25 26 26 27 28 28 29 30
72 55 55 67 80 87 87 65 90 97 100 99 72 51 70 99 99 100 100 100 100 100 100 92 75 57 47 40 38 35 33 30 27 26 27 27 29 29 30 31 32 34 35
95 78 59 61 73 90 100 100 89 98 100 98 97 99 96 93 88 77 99 98 99 99 99 99 93 79 62 57 56 56 52 50 48 45 46 46 42 42 41 40 40 42 47
90 93 80 68 64 76 95 99 95 97 99 64 66 85 99 70 90 88 69 88 98 98 99 99 100 100 100 98 100 87 95 98 92 75 80 85 76 72 67 64 65 72 78
97 92 82 83 87 78 69 64 64 63 93 100 98 100 100 88 100 99 84 99 91 96 98 99 99 97 97 99 99 99 99 99 99 100 91 98 100 100 93 91 98 100 100
100 100 95 84 84 88 86 80 75 74 75 84 90 74 97 100 99 94 93 86 95 90 91 89 77 61 98 97 82 87 95 88 95 93 99 79 94 100 100 94 99 99 99
97 98 100 94 86 82 79 76 74 75 94 100 100 99 99 100 100 98 76 84 68 59 68 64 84 79 71 76 56 47 60 86 87 98 98 96 86 99 100 100 98 99 99
96 97 96 97 93 86 79 72 66 62 62 64 65 62 59 60 61 56 51 43 43 44 42 44 40 42 40 43 65 52 50 48 46 49 65 80 88 99 95 98 100 99 100
95 96 96 96 96 96 86 77 69 61 54 50 48 48 46 45 44 43 42 42 40 38 33 30 30 35 36 39 38 38 45 49 52 56 62 64 99 89 98 83 98 100 97
96 97 96 96 96 96 96 95 84 77 69 63 56 52 49 47 46 44 44 46 51 57 55 48 35 27 23 20 21 30 38 38 44 48 53 71 70 82 91 98 100 100 95
97 99 96 97 97 96 95 96 96 96 88 76 72 69 72 82 82 76 74 63 73 58 48 44 41 30 22 20 19 20 28 35 38 45 64 90 97 86 92 100 100 98 100
96 96 98 97 97 96 96 96 95 95 95 96 98 99 94 86 81 74 72 77 54 44 33 25 20 16 16 13 12 16 21 29 36 46 60 72 97 90 100 100 100 100 95
95 95 97 95 97 93 91 93 95 95 94 93 96 96 97 97 94 90 78 64 58 54 39 31 22 17 18 15 10 14 24 37 37 40 50 65 77 87 88 80 95 90 100
96 98 98 94 95 94 90 90 94 94 94 95 96 96 96 96 97 96 94 91 81 46 38 32 27 23 24 18 15 18 20 34 50 54 63 62 85 89 97 98 97 99 97
84 92 96 91 88 88 89 89 91 95 94 92 96 95 95 95 96 87 80 87 56 45 41 38 34 32 30 29 30 32 37 60 68 73 63 67 94 93 86 89 87 92 99
57 57 60 68 84 87 88 91 91 94 79 76 78 77 73 86 92 95 93 64 51 46 43 38 34 33 37 37 39 43 57 64 65 93 99 99 100 96 95 100 99 97 97
Wind_Speed
24 25 28 30 28 24 23 24 22 27 31 35 37 35 39 41 41 37 35 34 35 35 32 30 28 28 28 28 27 26 26 27 26 24 24 23 21 19 18 17 17 17 16
27 27 25 29 31 29 23 25 21 24 28 31 33 37 35 42 33 36 36 38 37 36 34 32 29 28 29 29 29 27 27 27 25 25 25 24 23 22 22 21 20 19 17
26 27 29 31 37 31 28 25 25 22 24 26 24 27 32 39 41 45 51 36 38 36 37 36 33 31 31 29 29 29 28 25 25 25 25 26 25 22 22 22 19 18 17
37 34 35 36 33 31 31 24 26 26 26 26 26 26 28 35 40 44 49 45 49 38 40 38 36 34 33 32 30 29 28 27 27 26 24 24 22 22 21 21 19 19 17
30 28 29 30 28 27 28 21 27 27 27 28 28 30 28 29 32 40 47 52 53 46 45 42 39 37 35 34 31 30 30 28 28 26 25 24 24 24 23 21 21 20 19
29 29 28 27 27 26 27 24 27 27 27 29 29 32 33 32 36 34 42 52 56 57 49 45 40 40 37 35 33 32 31 30 29 28 28 27 27 24 24 25 24 22 22
28 27 25 25 26 31 31 27 24 26 26 26 27 28 31 36 38 41 39 44 48 46 48 42 40 39 37 35 35 34 32 31 30 29 28 28 27 27 29 27 25 25 25
25 24 25 24 26 30 30 24 25 23 24 23 21 26 27 32 34 39 39 48 46 44 42 38 37 36 36 36 35 34 32 32 31 31 30 29 29 30 30 28 27 28 27
18 19 21 24 25 26 24 23 24 23 21 20 20 26 23 28 39 40 39 51 47 40 40 37 36 36 36 36 36 35 33 33 33 32 32 31 31 32 30 29 29 29 29
17 17 18 21 24 25 23 21 21 20 22 24 24 19 14 19 32 36 34 50 55 43 44 39 35 36 36 36 36 35 34 34 34 33 33 32 32 31 31 30 30 30 30
18 19 19 19 21 23 25 25 24 21 22 17 13 12 19 11 15 23 25 28 43 46 52 38 36 37 37 36 37 36 35 36 35 35 34 33 33 33 32 32 32 32 31
17 19 20 23 23 21 20 23 23 24 18 16 13 11 16 19 10 11 17 24 21 30 47 39 40 38 37 37 37 36 35 35 36 34 34 34 35 35 34 34 34 33 32
14 15 18 22 25 23 22 19 20 21 19 11 10 11 11 8 10 11 16 18 14 24 35 36 34 32 33 34 33 35 35 34 34 33 33 33 36 37 36 35 34 35 35
15 14 14 16 20 25 26 27 26 22 23 19 14 14 13 4 2 9 7 15 15 20 16 23 33 29 20 35 39 42 36 37 35 35 33 35 37 37 35 35 35 38 40
14 14 15 14 14 17 20 23 24 25 22 23 19 17 14 10 12 9 5 7 4 7 9 30 42 36 41 30 16 25 31 42 32 34 24 22 35 48 38 36 44 46 45
14 14 15 16 16 15 16 17 19 21 23 24 22 22 23 17 13 10 14 11 9 6 5 6 3 8 26 10 16 17 17 21 16 18 27 21 21 28 38 40 41 39 38
13 14 14 15 17 18 18 19 19 20 22 25 24 22 22 21 21 19 14 14 13 12 14 12 19 22 19 18 18 23 27 28 28 27 30 32 30 27 30 39 34 34 34
9 11 13 15 16 18 20 20 21 21 21 22 22 22 21 21 21 19 18 15 14 13 13 14 14 14 14 15 22 20 20 21 24 27 32 34 31 35 37 34 32 34 31
7 10 11 14 17 18 19 21 21 22 23 23 23 22 20 20 19 20 19 18 14 11 10 12 13 15 17 18 19 21 21 23 24 24 26 27 32 28 29 33 29 29 31
6 8 11 12 13 18 19 20 21 22 23 24 24 24 23 22 21 19 18 16 15 17 18 17 16 16 18 18 20 22 23 24 24 25 27 25 26 24 23 32 35 37 31
7 6 9 12 14 12 13 19 19 22 25 25 25 26 26 23 21 20 20 19 20 19 21 22 23 22 22 21 22 21 23 25 26 24 23 25 27 24 23 30 27 24 31
7 6 6 7 9 11 12 13 11 10 14 23 28 28 28 27 25 22 20 21 20 22 21 21 22 21 19 18 19 20 22 23 25 26 25 26 29 28 27 23 29 26 26
7 7 6 8 8 10 13 14 14 13 12 13 16 22 27 31 31 26 25 21 23 25 24 24 24 23 21 21 20 19 20 22 24 25 27 29 27 24 28 29 33 32 29
5 6 7 7 7 8 14 16 16 14 15 15 17 17 17 19 22 25 23 23 25 25 24 24 25 24 22 21 23 23 22 19 20 22 24 25 24 25 24 31 29 29 31
6 6 6 8 8 8 10 13 13 12 15 16 16 18 21 20 19 17 20 22 22 24 24 23 24 23 22 22 24 23 21 21 22 23 23 22 22 20 23 31 30 32 34
8 8 8 9 9 9 9 10 13 12 12 14 17 18 19 22 23 22 22 22 22 23 23 23 22 22 21 22 23 23 22 24 22 24 23 20 22 22 24 24 25 29 27
Wind_Direction
247 255 260 254 250 247 257 264 249 235 230 229 231 230 236 240 242 253 240 230 229 225 223 224 230 234 230 229 222 218 220 222 218 217 219 218 211 217 219 217 216 224 230
245 247 249 261 255 257 255 259 255 238 235 236 237 236 237 230 244 235 232 233 229 228 225 222 223 230 234 231 228 224 221 225 222 225 222 223 223 218 224 223 226 229 236
240 234 231 237 253 256 259 256 257 241 234 232 229 229 231 233 234 236 236 233 236 229 228 223 220 223 229 231 233 229 227 227 229 228 229 231 230 229 229 232 234 243 247
239 236 239 242 244 255 260 249 242 243 239 236 233 234 245 246 240 240 238 238 238 231 230 226 221 222 226 226 230 230 229 227 228 231 231 235 239 240 240 244 244 245 249
237 240 241 236 241 244 251 239 234 235 238 246 248 244 246 248 250 243 238 237 233 233 229 225 224 222 225 227 227 229 230 228 230 231 233 236 237 240 244 243 247 248 249
237 235 235 237 234 232 241 243 230 232 236 245 250 246 251 254 258 254 235 230 233 238 224 224 224 225 224 226 227 229 229 229 231 231 234 237 238 240 244 245 246 249 253
243 242 239 234 230 233 233 236 226 225 236 246 253 257 254 256 252 252 233 228 222 222 220 223 225 229 229 226 230 230 231 232 234 235 237 240 243 244 247 249 252 255 257
244 243 240 231 225 231 235 233 213 223 234 240 264 260 261 257 252 245 239 223 229 229 225 228 229 231 232 232 231 232 232 232 233 237 238 241 244 246 251 251 253 257 261
234 229 224 218 219 222 223 216 216 219 227 232 253 239 254 252 258 252 231 229 224 217 224 227 228 230 231 232 234 234 234 235 236 236 239 241 244 248 251 255 258 261 265
224 219 219 215 214 212 208 208 215 218 228 245 253 258 235 244 242 250 248 230 232 228 225 220 225 228 229 232 234 235 235 236 238 240 241 243 246 250 252 256 259 263 266
219 213 205 206 204 206 207 209 207 212 227 232 244 281 234 207 226 250 241 239 225 233 227 209 220 224 227 228 232 234 235 238 239 241 244 246 247 249 250 253 255 259 264
213 212 203 199 198 198 203 210 212 219 218 230 246 268 252 260 204 202 224 226 237 234 221 205 218 219 225 230 232 234 237 239 242 246 246 249 251 252 252 252 254 257 259
206 211 211 205 202 202 202 206 220 210 220 212 230 269 289 269 256 266 255 190 169 230 208 200 218 231 232 234 238 240 241 244 246 245 248 252 252 254 255 255 256 258 257
201 202 208 209 211 211 208 206 209 213 213 224 215 207 248 265 233 206 235 276 263 227 190 203 219 214 233 232 237 243 240 248 244 242 251 257 254 255 255 255 253 257 261
206 204 205 205 205 207 213 218 217 216 198 192 198 195 202 217 197 242 282 217 298 276 208 225 224 225 223 242 236 232 245 236 238 238 251 255 259 249 242 244 269 265 258
205 202 201 205 206 205 205 208 210 211 209 210 203 215 208 198 211 202 206 190 204 223 213 194 198 247 226 245 274 264 235 238 247 259 251 259 271 264 254 256 256 271 269
204 208 205 203 206 205 204 203 204 202 198 198 198 202 208 202 202 208 199 211 199 203 218 213 215 220 209 214 223 222 222 231 231 242 244 240 248 243 252 255 263 265 267
217 213 215 210 211 208 205 203 203 203 201 196 195 198 198 198 197 201 202 199 200 215 224 229 237 235 237 233 230 240 239 241 243 242 240 243 248 248 262 257 256 261 250
251 244 231 226 221 215 212 205 202 203 203 201 197 194 196 198 200 201 202 203 205 216 239 246 248 249 253 252 252 250 247 247 248 249 250 246 247 255 245 264 248 259 270
282 272 251 244 235 231 224 217 212 209 208 206 204 201 199 201 204 207 214 218 225 240 246 252 256 254 257 259 256 255 254 254 253 251 251 250 247 253 268 251 262 263 263
306 274 258 239 235 236 239 235 230 226 224 217 215 214 210 211 216 217 223 226 226 233 237 237 244 250 252 255 260 263 259 258 260 258 257 242 258 266 257 255 259 253 262
305 299 265 233 210 218 232 220 229 246 241 235 233 232 228 222 222 224 227 237 238 237 234 237 242 243 247 253 258 259 260 258 254 254 255 250 249 256 256 252 249 255 256
308 299 281 263 238 233 249 258 240 267 279 272 257 248 239 235 235 232 232 238 246 245 239 241 243 244 248 251 253 255 256 258 257 254 253 252 252 248 248 256 259 253 250
304 300 304 288 285 259 253 254 255 262 248 256 264 266 258 251 237 235 234 243 246 252 250 249 248 248 250 254 255 256 253 247 248 251 252 255 249 249 248 250 253 244 244
317 315 304 290 285 275 259 249 246 252 258 261 262 267 276 270 253 239 245 243 246 247 248 249 253 253 253 253 253 256 260 250 245 248 250 247 246 255 250 253 252 253 248
298 298 302 306 301 286 279 279 272 263 262 260 260 259 266 276 272 258 246 245 247 249 249 249 250 254 257 258 256 253 248 250 254 252 246 244 242 247 249 258 262 250 249